Baku, Azerbaijan

2:27 AM +04 on January 19, 2019 (GMT +0400)
Bina

Weather History for UBBB - February, 2018

Change the Weather History Date:

Monday, February 12, 2018

  Actual Average (WUND) Record (WUND)
Temperature  
Mean Temperature 46 °F -  
Max Temperature 50 °F - - (-1)
Min Temperature 42 °F - - (-1)
Degree Days  
Heating Degree Days 19    
Moisture  
Dew Point 41 °F    
Average Humidity 84    
Maximum Humidity 93    
Minimum Humidity 61    
Precipitation  
Precipitation 0.00 in - - ()
Sea Level Pressure  
Sea Level Pressure 29.76 in    
Wind  
Wind Speed 12 mph ()    
Max Wind Speed 23 mph    
Max Gust Speed 36 mph    
Visibility 6.2 miles    
Events Rain    
Averages and records for this station are not official NWS values.
T = Trace of Precipitation, MM = Missing Value Source: Averaged Metar Reports

Daily Weather History Graph

Daily Weather History Graph

Search for Another Location

Airport or City:

Astronomy

Feb. 12, 2018 Rise Set
Actual Time 7:37 AM +04 6:10 PM +04
Civil Twilight 7:09 AM +04 6:39 PM +04
Nautical Twilight 6:37 AM +04 7:11 PM +04
Astronomical Twilight 6:05 AM +04 7:42 PM +04
Moon 5:11 AM +04 (2/12) 3:05 PM +04 (2/12)
Length of Visible Light 11h 29m
Length of Day
10h 33m
Waning Crescent, 11% of the Moon is Illuminated
Feb 12
Waning Crescent
Feb 16
New
Feb 23
First Quarter
Mar 2
Full
Mar 9
Last Quarter

Hourly Weather History & Observations

Time (+04) Temp. Windchill Dew Point Humidity Pressure Visibility Wind Dir Wind Speed Gust Speed Precip Events Conditions
12:00 AM 46.4 °F 41.5 °F 42.8 °F 87% 29.86 in 6.2 mi SSE 10.4 mph - N/A   Mostly Cloudy
12:30 AM 46.4 °F 40.7 °F 42.8 °F 87% 29.86 in 6.2 mi SSE 12.7 mph - N/A   Mostly Cloudy
1:00 AM 46 °F - 43 °F 85% 29.84 in 6 mi SE 6.7 mph - -   Overcast
1:00 AM 46.4 °F 40.7 °F 42.8 °F 87% 29.83 in 6.2 mi SSE 12.7 mph - N/A   Overcast
1:30 AM 46.4 °F 40.4 °F 44.6 °F 93% 29.83 in 6.2 mi SSE 13.8 mph - N/A   Overcast
2:00 AM 46.4 °F 41.1 °F 44.6 °F 93% 29.80 in 6.2 mi South 11.5 mph - N/A   Overcast
2:30 AM 46.4 °F 40.7 °F 44.6 °F 93% 29.80 in 6.2 mi South 12.7 mph - N/A   Overcast
3:00 AM 46.4 °F 40.4 °F 44.6 °F 93% 29.80 in 6.2 mi South 13.8 mph - N/A   Overcast
3:30 AM 46.4 °F 40.4 °F 44.6 °F 93% 29.77 in 6.2 mi South 13.8 mph - N/A   Overcast
4:00 AM 46 °F - 44 °F 88% 29.78 in 6 mi SSE 11.2 mph - -   Overcast
4:00 AM 46.4 °F 41.1 °F 44.6 °F 93% 29.77 in 6.2 mi South 11.5 mph - N/A   Overcast
4:30 AM 46.4 °F 40.1 °F 44.6 °F 93% 29.77 in 6.2 mi South 15.0 mph - N/A   Overcast
5:00 AM 46.4 °F 40.7 °F 42.8 °F 87% 29.74 in 6.2 mi South 12.7 mph - N/A   Overcast
5:30 AM 44.6 °F 39.2 °F 42.8 °F 93% 29.74 in 6.2 mi South 10.4 mph - N/A   Overcast
6:00 AM 44.6 °F 39.2 °F 42.8 °F 93% 29.74 in 6.2 mi SSE 10.4 mph - N/A   Overcast
6:30 AM 46.4 °F 42.9 °F 42.8 °F 87% 29.74 in 6.2 mi South 6.9 mph - N/A   Overcast
7:00 AM 45 °F - 43 °F 90% 29.73 in 6 mi SSE 11.2 mph - -   Overcast
7:00 AM 44.6 °F 40.7 °F 41.0 °F 87% 29.71 in 6.2 mi South 6.9 mph - N/A   Overcast
7:30 AM 44.6 °F 40.7 °F 42.8 °F 93% 29.71 in 6.2 mi South 6.9 mph - N/A   Overcast
8:00 AM 44.6 °F 38.8 °F 42.8 °F 93% 29.71 in 6.2 mi South 11.5 mph - N/A   Mostly Cloudy
8:30 AM 46.4 °F 39.5 °F 41.0 °F 81% 29.71 in 6.2 mi SSW 17.3 mph - N/A   Mostly Cloudy
9:00 AM 46.4 °F 40.1 °F 41.0 °F 81% 29.74 in 6.2 mi SSW 15.0 mph - N/A   Mostly Cloudy
9:30 AM 46.4 °F 40.4 °F 41.0 °F 81% 29.71 in 6.2 mi South 13.8 mph - N/A   Scattered Clouds
10:00 AM 47 °F - 41 °F 73% 29.71 in 6 mi SSE 13.4 mph - -   Mostly Cloudy
10:00 AM 46.4 °F 39.8 °F 41.0 °F 81% 29.71 in 6.2 mi South 16.1 mph - N/A   Scattered Clouds
10:30 AM 48.2 °F - 41.0 °F 76% 29.71 in 6.2 mi South 15.0 mph - N/A   Scattered Clouds
11:00 AM 48.2 °F - 42.8 °F 82% 29.71 in 6.2 mi South 15.0 mph - N/A   Scattered Clouds
11:30 AM 50.0 °F - 41.0 °F 71% 29.71 in 6.2 mi SW 15.0 mph - N/A   Scattered Clouds
12:00 PM 50.0 °F - 41.0 °F 71% 29.71 in 6.2 mi West 12.7 mph - N/A   Scattered Clouds
12:30 PM 44.6 °F 38.1 °F 39.2 °F 81% 29.71 in 6.2 mi NW 13.8 mph - N/A   Mostly Cloudy
1:00 PM 45 °F - 37 °F 64% 29.71 in 6 mi WNW 11.2 mph - -   Overcast
1:00 PM 44.6 °F 38.8 °F 37.4 °F 76% 29.71 in 6.2 mi NW 11.5 mph - N/A   Mostly Cloudy
1:30 PM 44.6 °F 38.8 °F 37.4 °F 76% 29.71 in 6.2 mi NW 11.5 mph - N/A   Overcast
2:00 PM 44.6 °F 38.8 °F 37.4 °F 76% 29.71 in 6.2 mi NW 11.5 mph - N/A   Overcast
2:30 PM 46.4 °F 40.4 °F 37.4 °F 71% 29.68 in 6.2 mi NW 13.8 mph - N/A   Overcast
3:00 PM 46.4 °F 40.1 °F 37.4 °F 71% 29.71 in 6.2 mi NNW 15.0 mph - N/A   Overcast
3:30 PM 48.2 °F - 37.4 °F 66% 29.71 in 6.2 mi NNW 9.2 mph - N/A   Mostly Cloudy
4:00 PM 46 °F - 37 °F 61% 29.72 in 6 mi WNW 13.4 mph - -   Overcast
4:00 PM 48.2 °F - 39.2 °F 71% 29.71 in 6.2 mi NNW 12.7 mph - N/A   Mostly Cloudy
4:30 PM 46.4 °F 41.1 °F 39.2 °F 76% 29.71 in 6.2 mi North 11.5 mph - N/A   Overcast
5:00 PM 44.6 °F 38.8 °F 39.2 °F 81% 29.74 in 6.2 mi NNW 11.5 mph - N/A   Mostly Cloudy
5:30 PM 44.6 °F 37.4 °F 39.2 °F 81% 29.74 in 6.2 mi NNW 16.1 mph - N/A   Mostly Cloudy
6:00 PM 42.8 °F 34.5 °F 41.0 °F 93% 29.74 in 6.2 mi NNW 18.4 mph - N/A   Mostly Cloudy
6:30 PM 44.6 °F 36.6 °F 41.0 °F 87% 29.77 in 6.2 mi NNW 19.6 mph - N/A   Mostly Cloudy
7:00 PM 44 °F - 40 °F 83% 29.78 in 6 mi WNW 20.1 mph - -   Overcast
7:00 PM 44.6 °F 35.9 °F 41.0 °F 87% 29.77 in 6.2 mi NNW 23.0 mph 35.7 mph N/A   Overcast
7:30 PM 44.6 °F 35.9 °F 42.8 °F 93% 29.77 in 6.2 mi NNW 23.0 mph - N/A Rain Light Rain
8:00 PM 44.6 °F 35.9 °F 42.8 °F 93% 29.77 in 6.2 mi NNW 23.0 mph - N/A   Overcast
8:30 PM 44.6 °F 36.6 °F 42.8 °F 93% 29.80 in 6.2 mi North 19.6 mph - N/A   Overcast
9:00 PM 44.6 °F 36.9 °F 42.8 °F 93% 29.80 in 6.2 mi North 18.4 mph - N/A   Overcast
9:30 PM 44.6 °F 37.8 °F 42.8 °F 93% 29.83 in 6.2 mi North 15.0 mph - N/A   Overcast
10:00 PM 43 °F - 41 °F 91% 29.86 in 6 mi NNW 11.2 mph - -   Overcast
10:00 PM 44.6 °F 37.4 °F 42.8 °F 93% 29.86 in 6.2 mi North 16.1 mph - N/A   Overcast
10:30 PM 44.6 °F 37.2 °F 41.0 °F 87% 29.86 in 6.2 mi North 17.3 mph - N/A   Overcast
11:00 PM 44.6 °F 37.8 °F 41.0 °F 87% 29.86 in 6.2 mi North 15.0 mph - N/A   Overcast
11:30 PM 42.8 °F 35.8 °F 41.0 °F 93% 29.86 in 6.2 mi NNW 13.8 mph - N/A   Overcast